Temperature
7 6 6 7 7 8 8 8 8 8 8 9 8 8 8 8 8 8 8 9 10 10 10 10 10 10 10 10 10 10 10 10 10 10 10 10 10 10 10 10 10 10 10 10
6 7 7 7 8 8 8 8 8 8 8 8 8 8 8 8 8 8 9 9 10 10 10 10 10 10 10 10 10 10 10 10 10 10 10 10 10 10 10 10 9 9 9 9
7 7 8 8 8 8 8 8 7 8 8 8 8 9 8 8 8 9 9 9 10 10 10 10 10 10 10 10 10 10 10 10 9 9 9 9 9 9 9 9 9 9 9 9
6 7 8 8 8 8 8 8 8 8 7 7 8 8 9 8 8 8 9 9 10 10 10 10 10 10 10 10 9 9 9 9 9 9 9 9 9 9 9 9 9 9 9 9
6 7 7 7 7 8 7 7 7 7 7 7 6 7 7 7 8 8 8 9 10 10 10 10 10 10 10 9 9 9 9 9 9 9 9 9 9 9 9 8 8 8 8 8
7 7 7 7 7 7 7 7 7 5 6 8 7 7 8 6 8 8 8 9 10 10 10 10 10 10 10 9 9 9 9 9 9 9 9 9 9 8 8 8 8 8 8 8
7 7 7 7 8 8 7 7 6 7 6 7 6 6 6 7 7 7 8 9 10 10 10 10 10 10 10 9 9 9 9 8 8 8 8 8 8 8 8 8 8 8 8 8
7 6 7 7 7 7 7 7 7 8 7 6 6 6 7 7 7 8 8 9 10 10 10 10 10 10 9 9 9 9 9 8 8 8 8 8 8 8 8 7 7 7 7 7
6 6 7 7 7 7 7 6 6 5 6 6 6 6 7 7 7 7 8 8 9 10 10 10 10 9 9 9 9 9 8 8 8 8 8 7 7 7 7 7 7 7 7 7
6 6 6 6 7 7 7 5 5 6 7 8 7 7 6 7 7 7 7 8 9 9 9 9 9 9 9 9 8 8 8 8 8 7 7 7 7 7 7 7 7 7 6 6
6 6 6 6 7 7 7 6 5 4 5 7 7 7 7 7 7 6 6 8 9 9 9 9 9 9 9 8 8 8 8 7 7 7 7 7 7 7 7 7 7 6 6 6
5 4 5 6 6 6 6 6 5 6 6 5 5 6 7 6 6 6 7 8 9 9 9 9 9 9 8 8 8 8 8 7 7 7 7 7 6 6 6 6 6 6 6 6
6 5 6 7 6 6 6 6 5 5 4 3 5 7 6 6 6 7 7 8 9 9 9 9 8 8 8 8 8 7 7 7 7 7 6 6 6 6 6 6 6 6 6 5
5 5 5 7 7 6 5 6 5 5 4 4 4 6 7 7 6 6 7 8 9 9 8 8 8 8 8 8 7 7 7 7 6 6 6 6 6 6 6 5 5 5 5 5
5 4 4 4 5 5 5 5 5 4 4 5 5 5 6 6 5 7 7 8 8 8 8 8 8 8 8 7 7 7 7 6 6 6 6 6 6 5 5 5 5 5 5 5
4 4 4 4 4 4 4 4 4 4 5 4 5 5 5 6 6 6 7 7 8 8 8 8 7 7 7 7 7 6 6 6 6 6 5 5 5 5 5 5 5 5 5 4
3 4 4 4 4 5 5 5 4 4 4 4 5 6 5 5 5 6 7 7 8 8 7 7 7 7 7 6 6 6 6 6 5 5 5 5 5 5 5 4 4 4 4 4
3 3 3 3 4 5 7 6 5 4 4 4 5 5 5 5 7 7 8 8 8 7 7 7 7 6 6 6 6 5 5 5 5 5 5 4 4 4 4 4 4 4 4 4
2 3 3 3 3 4 6 5 4 4 5 4 4 4 5 6 5 6 7 7 7 7 7 7 6 6 6 5 5 5 5 5 4 4 4 4 4 4 4 4 3 3 3 3
1 2 3 3 4 6 8 6 5 6 6 6 4 4 4 4 4 5 7 7 7 7 6 6 6 5 5 5 5 5 4 4 4 4 4 4 4 3 3 3 3 3 3 3
2 2 2 3 3 4 5 5 6 6 7 7 6 6 5 4 5 7 7 6 6 6 6 6 5 5 5 5 4 4 4 4 4 4 3 3 3 3 3 3 3 2 2 2
2 2 2 2 3 5 5 4 5 6 7 7 7 7 6 6 6 6 6 6 6 5 5 5 5 5 4 4 4 4 4 4 3 3 3 3 3 3 2 2 2 2 2 2
1 3 3 3 5 6 6 6 7 7 7 8 7 7 7 6 6 6 6 5 5 5 5 5 4 4 4 4 4 4 4 3 3 3 3 3 3 2 2 2 2 2 1 1
1 1 1 1 2 4 6 7 7 7 7 7 7 7 7 6 6 6 5 5 5 5 4 4 4 4 4 4 3 3 3 3 3 3 3 3 2 2 2 1 1 1 1 1
2 0 1 1 2 4 6 7 8 8 7 7 7 6 6 6 6 5 5 5 5 4 4 4 4 4 4 3 3 3 3 3 3 3 2 2 2 2 2 1 1 1 1 0
2 2 2 4 5 4 6 8 8 7 7 7 6 6 6 5 5 5 5 4 4 4 4 3 3 3 3 3 3 3 2 2 2 2 2 2 2 1 1 1 1 1 0 0
Wind_Speed
4 4 2 2 1 3 3 4 2 2 2 3 2 1 2 1 2 3 3 3 4 4 2 2 3 3 3 2 2 2 2 2 2 2 2 2 1 2 2 3 5 5 5 5
4 3 3 1 1 4 4 4 2 3 4 2 2 1 2 2 3 4 5 5 6 4 2 3 3 3 3 2 2 2 2 1 1 1 1 1 0 0 1 2 4 5 5 5
3 3 3 2 5 5 4 3 1 1 3 6 3 4 2 1 1 2 3 4 4 6 6 4 4 4 3 3 3 2 2 2 1 2 2 2 2 2 2 2 2 3 4 4
3 4 3 4 4 3 1 0 2 2 4 3 3 1 4 2 3 3 4 4 5 4 5 5 5 4 4 4 3 2 2 2 1 2 2 1 1 1 2 1 1 2 3 3
3 4 4 4 3 2 1 2 4 3 3 2 3 1 7 2 4 6 6 6 5 5 5 5 5 5 5 3 3 2 2 1 1 2 2 2 1 2 1 1 2 2 2 2
1 2 2 1 2 2 1 4 6 5 4 2 1 2 5 4 5 5 4 5 4 4 4 4 3 3 3 2 2 2 2 2 1 2 2 2 3 2 2 2 2 2 1 2
5 4 4 2 3 5 5 6 5 5 4 4 2 2 8 6 5 5 5 4 3 3 3 3 3 3 3 3 3 3 3 3 2 2 2 3 4 3 4 3 3 2 2 2
3 4 5 4 2 1 2 4 5 4 4 4 2 5 7 5 4 3 3 2 2 2 2 3 3 3 3 3 3 3 3 3 2 3 3 3 3 3 3 3 3 3 3 3
2 2 4 2 1 2 3 2 3 5 2 2 5 6 7 2 2 1 1 1 1 2 2 2 2 2 3 3 3 4 4 4 3 3 3 3 3 3 4 4 3 3 3 2
3 0 3 4 2 3 2 6 4 3 2 3 5 5 5 5 4 2 1 1 2 1 2 2 2 2 2 2 2 2 3 4 3 3 3 3 3 4 4 3 4 4 4 3
2 2 3 3 1 1 2 3 4 3 3 3 3 7 5 6 5 4 4 3 3 3 3 2 2 2 2 1 1 2 3 3 3 3 3 3 3 3 3 3 4 4 4 3
2 3 2 4 2 2 2 3 5 3 3 3 3 7 4 4 4 4 4 4 3 2 2 2 1 1 1 1 2 2 3 3 4 3 3 3 3 2 3 4 4 4 4 4
3 3 2 4 3 1 2 3 4 4 3 4 4 7 3 1 1 2 4 4 3 2 1 1 1 1 2 2 2 3 3 3 3 2 3 3 2 3 4 4 4 4 4 4
4 3 5 6 4 3 4 4 5 5 4 5 8 9 7 4 3 4 4 4 3 3 2 2 2 3 3 3 3 3 3 3 2 2 2 3 3 4 4 4 4 4 4 4
4 3 4 6 5 4 6 7 8 9 9 9 8 9 11 8 7 6 5 4 3 3 3 3 3 3 3 3 3 3 3 3 2 2 3 4 4 3 3 3 4 3 3 4
2 2 1 4 3 5 8 11 11 11 9 11 10 12 9 6 4 4 5 5 5 5 4 4 4 4 3 3 3 3 3 3 2 3 4 4 3 3 3 4 3 3 4 4
2 3 1 4 5 6 9 11 12 8 8 9 12 11 4 4 6 7 7 6 6 6 5 4 4 4 4 4 3 3 3 2 2 3 4 4 3 4 4 4 3 4 4 4
5 4 2 2 3 7 7 1 7 8 8 10 8 6 5 7 6 5 5 7 6 5 5 4 3 4 4 3 3 2 2 2 2 3 4 4 3 4 4 4 4 5 4 4
4 6 3 1 3 9 9 4 6 6 7 9 11 9 5 2 1 3 4 5 6 5 5 4 4 3 3 3 2 2 2 2 3 4 4 4 4 4 4 5 6 5 4 4
3 3 4 3 4 7 6 2 4 3 6 4 8 7 5 5 2 5 4 4 4 3 3 3 2 2 2 3 2 2 3 3 4 5 5 4 4 4 5 6 5 4 4 5
4 3 5 6 6 9 7 3 5 3 6 2 5 5 7 7 6 3 2 2 3 2 3 2 2 2 3 3 2 3 4 5 5 5 5 4 4 5 6 5 4 4 4 5
9 8 8 7 7 10 5 7 8 8 2 2 4 5 6 6 4 2 3 3 2 2 2 2 2 3 3 3 3 4 5 6 4 4 4 5 5 5 4 4 5 4 4 5
9 10 7 11 10 5 6 7 5 4 4 4 4 5 6 5 5 4 4 4 4 4 3 3 3 4 4 3 3 5 6 4 4 4 5 5 5 5 4 4 5 4 4 4
6 5 5 7 10 8 8 8 6 6 6 5 5 5 5 6 6 5 5 4 4 4 3 3 3 4 5 4 4 6 5 4 4 5 6 5 5 5 4 4 4 4 5 5
7 7 6 8 8 7 8 9 9 7 6 6 5 5 7 7 7 6 5 5 5 4 3 3 4 5 6 5 5 5 5 3 4 5 6 5 5 5 5 5 5 6 6 7
8 9 9 10 8 7 7 6 7 7 8 8 7 6 6 7 8 6 6 6 5 5 4 4 4 5 6 5 6 6 4 4 4 5 5 5 4 4 5 5 6 9 11 13
Wind_Direction
23 58 37 278 228 157 142 118 74 342 351 80 116 157 271 225 174 197 207 213 229 235 231 172 161 147 130 117 112 106 104 92 86 71 68 55 28 6 10 21 28 31 31 33
45 15 294 253 103 106 102 90 52 13 21 71 80 345 287 222 215 217 219 220 224 225 203 183 172 158 156 158 157 149 148 139 128 107 109 116 112 356 353 1 17 24 22 19
92 305 317 83 80 82 63 121 161 139 28 38 41 344 327 299 257 241 233 227 222 215 212 201 188 189 185 194 193 191 187 177 153 117 90 68 55 27 14 3 352 358 6 11
38 344 30 58 44 69 70 26 129 96 71 3 38 295 293 289 286 261 250 241 234 226 211 206 196 194 203 210 196 190 183 179 163 137 133 142 170 237 257 269 295 320 344 351
14 2 38 48 357 31 149 74 86 77 92 49 26 111 289 315 270 260 248 240 238 226 210 206 202 205 206 193 179 186 185 189 169 152 163 166 204 228 259 275 294 317 330 332
3 350 37 8 345 50 124 64 57 47 59 12 297 158 281 249 244 262 256 242 237 222 211 212 201 190 195 175 170 176 187 217 199 177 180 191 219 236 264 281 275 287 299 304
6 5 2 10 39 21 52 76 39 13 9 267 294 223 253 258 252 247 256 252 237 205 190 199 199 201 202 195 197 194 199 225 218 203 212 216 223 224 234 253 257 261 276 278
46 335 340 5 53 85 49 108 142 181 225 280 309 244 257 266 281 275 257 242 213 189 193 210 218 215 215 214 205 203 214 231 225 220 233 231 228 225 237 239 241 242 242 254
117 281 321 346 341 99 96 97 140 131 150 277 278 285 302 273 300 341 26 58 230 248 237 229 233 230 227 224 217 211 219 235 237 233 236 238 231 227 238 242 238 245 245 248
137 251 312 319 45 34 99 138 99 113 148 275 297 280 258 259 255 264 264 264 266 266 260 267 264 248 241 233 231 216 218 230 239 237 235 239 235 234 237 236 243 248 251 246
111 132 322 2 139 180 89 103 107 114 151 170 274 275 232 227 225 224 239 246 248 247 250 256 262 255 248 251 238 235 235 235 241 237 232 239 247 243 239 242 249 248 250 245
114 117 276 269 258 197 190 181 153 157 214 181 211 269 288 242 233 221 232 242 251 244 253 256 257 268 282 276 268 257 251 246 246 242 235 242 253 253 252 256 259 251 250 245
137 112 12 347 346 344 246 198 167 136 132 170 193 263 307 341 246 228 227 240 248 242 245 257 263 264 269 273 272 266 260 257 261 250 249 260 262 260 261 262 263 254 249 250
119 144 186 213 241 221 241 226 181 156 181 215 226 253 286 287 272 265 252 245 241 246 243 246 258 261 265 264 263 266 269 262 261 253 254 264 265 260 263 265 264 259 251 248
117 199 234 250 261 246 241 235 208 207 206 211 235 236 254 249 243 243 238 231 228 240 246 244 249 259 266 271 277 274 277 279 265 260 264 266 271 269 268 271 271 268 258 252
114 188 273 289 281 264 261 244 226 226 226 234 253 264 251 246 232 236 230 221 226 237 240 245 254 258 262 266 273 281 286 285 268 261 267 273 276 274 271 272 275 276 271 263
159 160 195 279 309 318 269 234 207 208 209 198 227 244 240 233 228 226 224 221 224 233 239 245 250 251 256 256 250 262 273 283 282 272 275 276 274 276 277 278 279 274 269 262
154 148 168 287 345 256 251 203 186 207 233 216 229 242 227 231 236 236 218 211 223 230 235 242 244 254 257 249 251 262 276 282 279 276 277 277 278 282 285 280 272 269 262 258
166 155 163 187 265 278 289 240 179 192 261 219 222 238 240 228 2 293 232 205 210 217 222 225 229 235 250 263 264 271 280 279 276 275 276 276 272 276 281 278 274 269 264 265
92 136 162 181 230 253 261 196 176 137 284 238 198 216 195 138 195 262 234 205 220 226 225 226 233 236 257 266 260 252 267 269 268 269 271 271 263 262 267 269 270 262 257 262
147 172 198 210 238 265 255 190 135 178 254 233 187 196 179 191 213 230 194 199 214 228 237 225 222 241 251 255 237 251 264 263 264 270 275 276 269 264 264 268 263 265 265 270
180 180 193 184 213 252 209 148 184 218 239 189 197 197 198 216 225 216 209 223 231 241 246 233 231 254 257 242 222 251 263 266 273 277 279 280 276 272 271 270 274 271 264 271
202 196 190 199 217 246 188 204 223 202 208 211 206 217 204 211 224 224 226 234 238 236 239 231 229 258 267 246 226 249 264 274 279 281 280 280 281 275 268 264 270 276 262 261
235 201 203 244 258 252 243 243 244 221 222 225 217 214 202 216 224 223 229 235 237 241 241 238 237 257 269 262 252 250 266 271 272 277 280 279 279 281 277 265 254 254 257 258
216 180 209 248 266 282 262 236 234 231 231 235 233 221 216 216 225 222 226 231 232 237 240 232 236 253 265 271 271 269 268 268 271 276 277 278 272 272 276 269 253 252 247 244
197 192 200 236 228 215 245 240 218 218 228 228 226 233 228 215 220 219 225 229 226 231 233 241 248 254 265 271 274 274 265 252 257 273 275 273 273 273 271 276 284 263 257 266
Height
1496 1500 1502 1501 1499 1499 1501 1503 1503 1502 1501 1501 1503 1503 1503 1503 1504 1504 1505 1505 1506 1508 1510 1512 1513 1515 1516 1517 1518 1518 1519 1519 1520 1520 1520 1520 1521 1521 1522 1522 1522 1521 1521 1521
1501 1503 1501 1499 1498 1499 1501 1503 1505 1504 1502 1503 1504 1505 1503 1503 1503 1503 1503 1504 1505 1506 1508 1510 1512 1513 1515 1516 1517 1518 1518 1519 1519 1519 1519 1519 1520 1520 1520 1520 1520 1520 1519 1519
1503 1503 1499 1499 1500 1501 1503 1505 1506 1506 1504 1505 1505 1505 1504 1503 1503 1503 1503 1503 1504 1505 1506 1508 1510 1511 1513 1515 1516 1517 1517 1518 1518 1517 1518 1518 1518 1518 1519 1519 1519 1518 1518 1518
1504 1502 1500 1500 1502 1502 1505 1505 1505 1506 1509 1514 1512 1515 1506 1504 1503 1502 1501 1501 1502 1503 1504 1506 1508 1510 1511 1513 1514 1515 1516 1516 1516 1516 1516 1517 1517 1517 1517 1517 1517 1516 1516 1516
1507 1505 1504 1504 1505 1503 1506 1505 1506 1508 1511 1516 1517 1518 1512 1506 1503 1501 1499 1499 1500 1501 1502 1504 1506 1508 1510 1511 1512 1513 1514 1514 1514 1514 1515 1515 1515 1515 1515 1515 1514 1514 1514 1514
1507 1506 1506 1506 1505 1505 1505 1507 1509 1514 1516 1518 1519 1520 1513 1508 1501 1499 1497 1497 1497 1499 1501 1502 1504 1506 1508 1509 1510 1511 1512 1512 1513 1513 1513 1513 1513 1513 1513 1512 1512 1512 1512 1512
1509 1508 1507 1507 1507 1507 1507 1513 1523 1523 1528 1523 1521 1519 1513 1501 1498 1497 1496 1495 1496 1497 1499 1501 1502 1504 1505 1507 1508 1509 1510 1510 1511 1511 1511 1511 1511 1511 1511 1510 1510 1510 1510 1509
1514 1516 1510 1509 1509 1510 1511 1513 1523 1525 1528 1526 1521 1519 1506 1497 1496 1495 1495 1495 1495 1496 1497 1499 1501 1503 1504 1505 1506 1507 1507 1508 1508 1508 1509 1509 1509 1508 1508 1508 1508 1507 1507 1506
1515 1516 1511 1509 1509 1509 1511 1517 1518 1526 1527 1526 1521 1514 1502 1496 1495 1494 1494 1494 1495 1496 1497 1498 1500 1501 1502 1503 1504 1505 1505 1506 1506 1506 1506 1506 1506 1505 1505 1505 1505 1504 1503 1503
1513 1517 1513 1511 1509 1510 1512 1516 1522 1523 1522 1521 1516 1514 1508 1498 1496 1495 1494 1494 1495 1495 1497 1498 1499 1500 1501 1502 1502 1503 1503 1503 1503 1503 1503 1503 1503 1502 1502 1501 1501 1501 1501 1500
1513 1517 1516 1513 1512 1513 1514 1516 1520 1525 1524 1524 1521 1511 1497 1495 1494 1494 1494 1494 1494 1495 1496 1497 1498 1499 1499 1500 1500 1500 1500 1500 1500 1500 1500 1500 1500 1499 1498 1498 1498 1498 1497 1496
1514 1519 1521 1515 1512 1512 1513 1514 1519 1520 1522 1527 1526 1513 1493 1492 1492 1492 1492 1493 1494 1495 1495 1496 1496 1497 1498 1498 1498 1498 1498 1497 1497 1497 1497 1497 1496 1495 1495 1495 1494 1494 1493 1492
1513 1518 1520 1515 1517 1515 1513 1513 1515 1519 1524 1530 1527 1508 1493 1491 1491 1491 1491 1492 1492 1493 1494 1495 1495 1495 1496 1496 1496 1495 1495 1495 1494 1494 1494 1493 1492 1492 1491 1491 1490 1489 1489 1488
1511 1517 1519 1515 1511 1512 1512 1512 1514 1516 1522 1522 1516 1503 1493 1491 1490 1490 1490 1490 1491 1491 1492 1492 1493 1493 1494 1494 1493 1493 1492 1492 1491 1491 1490 1489 1488 1488 1487 1487 1486 1485 1484 1483
1511 1516 1515 1514 1512 1511 1509 1508 1510 1511 1510 1510 1502 1501 1491 1489 1488 1487 1488 1488 1489 1489 1490 1490 1491 1491 1491 1491 1491 1490 1489 1489 1488 1487 1486 1485 1484 1484 1483 1483 1482 1481 1480 1479
1512 1514 1514 1514 1510 1510 1508 1503 1504 1503 1502 1501 1498 1493 1484 1485 1485 1485 1485 1485 1486 1487 1487 1488 1489 1489 1489 1489 1488 1487 1487 1486 1485 1484 1482 1481 1481 1480 1479 1479 1478 1477 1475 1475
1514 1515 1514 1514 1512 1506 1501 1491 1492 1494 1491 1492 1491 1484 1481 1482 1482 1481 1482 1482 1483 1484 1485 1486 1486 1486 1486 1486 1485 1484 1483 1482 1481 1480 1479 1478 1477 1476 1475 1474 1473 1472 1471 1470
1512 1515 1517 1516 1511 1506 1486 1482 1483 1485 1483 1483 1480 1478 1478 1478 1478 1478 1479 1479 1480 1482 1483 1483 1483 1484 1484 1483 1482 1481 1480 1479 1478 1477 1476 1475 1473 1472 1471 1470 1469 1468 1466 1465
1508 1511 1516 1517 1514 1502 1485 1480 1481 1483 1479 1475 1475 1475 1476 1476 1477 1476 1476 1477 1478 1479 1480 1480 1481 1481 1480 1480 1479 1478 1477 1476 1475 1473 1472 1471 1470 1468 1467 1466 1465 1463 1462 1460
1509 1510 1514 1515 1508 1496 1478 1477 1476 1479 1477 1469 1470 1471 1473 1475 1480 1476 1474 1475 1476 1476 1477 1477 1477 1477 1477 1476 1475 1474 1473 1472 1471 1470 1469 1468 1466 1464 1463 1461 1460 1459 1457 1456
1508 1510 1511 1511 1507 1492 1477 1475 1477 1482 1473 1468 1467 1468 1470 1472 1472 1472 1472 1472 1473 1474 1474 1474 1474 1474 1473 1472 1472 1471 1470 1469 1468 1466 1465 1464 1462 1461 1459 1457 1456 1454 1452 1451
1500 1504 1505 1505 1504 1489 1471 1473 1475 1471 1467 1466 1466 1467 1468 1468 1469 1469 1470 1470 1470 1470 1471 1471 1470 1470 1470 1469 1468 1467 1466 1465 1464 1462 1461 1459 1458 1456 1454 1453 1451 1449 1447 1445
1491 1487 1487 1486 1478 1468 1466 1466 1465 1465 1465 1465 1465 1465 1466 1466 1466 1466 1467 1467 1467 1467 1467 1467 1467 1467 1466 1466 1464 1463 1462 1461 1460 1458 1457 1455 1453 1452 1450 1448 1446 1444 1442 1440
1482 1479 1481 1479 1468 1464 1463 1462 1462 1462 1462 1462 1463 1463 1463 1463 1463 1463 1463 1463 1464 1464 1464 1464 1463 1463 1462 1462 1461 1460 1458 1457 1455 1454 1452 1450 1448 1446 1445 1443 1441 1439 1437 1435
1472 1475 1475 1471 1463 1460 1457 1457 1457 1458 1459 1459 1459 1459 1459 1459 1459 1459 1459 1460 1460 1460 1460 1460 1459 1459 1458 1458 1457 1456 1454 1452 1451 1449 1447 1445 1443 1441 1439 1438 1436 1434 1432 1430
1463 1464 1466 1459 1454 1455 1452 1452 1453 1454 1454 1454 1454 1454 1454 1455 1455 1455 1455 1455 1456 1456 1456 1456 1455 1455 1454 1453 1452 1451 1450 1448 1446 1444 1442 1440 1438 1436 1434 1432 1430 1428 1427 1424